Hourly Data Report for September 14, 2017

All times are specified in Local Standard Time (LST). Add 1 hour to adjust for Daylight Saving Time where and when it is observed.

EUREKA CLIMATE
NUNAVUT

79°59'21.000" N
85°56'02.000" W
10.00 m
2401199
71613
NEK

Download Data

Hourly Data (September 2017)
Hourly Data Report for September 14, 2017
Temp Definition
°C
Dew Point Temp Definition
°C
Rel Hum Definition
%
Wind Dir Definition
10's deg

Wind Spd Definition
km/h
Visibility Definition
km
Stn Press Definition
kPa
Hmdx Definition


Wind Chill Definition


Weather Definition


TIME
00:00 -6.4 -7.3 94 18 7   101.90   -10 LegendNANA
01:00 -6.4 -7.4 92 18 9   101.91   -11 LegendNANA
02:00 -6.4 -7.4 93 18 6   101.92   -9 LegendNANA
03:00 -6.4 -7.5 92 20 7   101.92   -10 LegendNANA
04:00 -6.7 -7.6 94 21 5   101.93   -9 LegendNANA
05:00 -6.8 -7.6 94 21 4   101.92   -9 LegendNANA
06:00 -6.8 -7.7 93 13 2   101.90   -8 LegendNANA
07:00 -6.5 -7.8 91 16 4   101.88   -8 LegendNANA
08:00 -6.7 -7.7 92 16 4   101.85   -9 LegendNANA
09:00 -6.7 -7.6 93 16 2   101.83   -8 LegendNANA
10:00 -6.6 -8.1 89 8 2   101.80   -8 LegendNANA
11:00 -6.7 -8.3 88 19 4   101.79   -9 LegendNANA
12:00 -6.7 -8.4 88 16 7   101.77   -10 LegendNANA
13:00 -7.0 -9.0 86 16 9   101.76   -11 LegendNANA
14:00 -7.2 -9.0 87 19 5   101.73   -10 LegendNANA
15:00 -7.2 -9.0 86 32 2   101.69   -8 LegendNANA
16:00 -7.4 -9.2 87 25 5   101.66   -10 LegendNANA
17:00 -7.6 -9.0 90 14 3   101.60   -9 LegendNANA
18:00 -7.8 -8.9 92 22 3   101.55   -9 LegendNANA
19:00 -7.9 -9.0 92 27 3   101.49   -9 LegendNANA
20:00 -8.0 -8.9 93 36 1   101.40   -9 LegendNANA
21:00 -8.0 -8.9 94 1 2   101.34   -9 LegendNANA
22:00 -8.0 -8.9 93 1 1   101.26   -9 LegendNANA
23:00 -7.9 -8.8 93 10 3   101.18   -9 LegendNANA

Notes on Data Quality.

Legend

  • E = Estimated
  • M = Missing
  • NA = Not Available
  • ‡ = Partner data that is not subject to review by the National Climate Archives
Date modified: